GW4733 Weather Reports


Display with metric or nautical units.
time (UTC)temp
F
wind
direction
speed
MPH
gust
MPH
rain 1hr
in
rain 24hr
in
rain mn
in
humidity
%
barometer
mb
20260509185314 73 120 1.0 4.0 0.00 0.00 0.00 49 1009.5
20260509184812 71 125 2.0 2.0 0.00 0.00 0.00 49 1009.7
20260509184309 73 126 4.0 6.0 0.00 0.00 0.00 48 1010.0
20260509183805 71 125 0.0 1.0 0.00 0.00 0.00 54 1009.8
20260509183301 71 125 4.0 6.0 0.00 0.00 0.00 50 1009.8
20260509182756 71 124 1.0 2.0 0.00 0.00 0.00 53 1009.9
20260509182254 70 124 0.0 2.0 0.00 0.00 0.00 61 1010.2
20260509181751 69 124 1.0 3.0 0.00 0.00 0.00 56 1010.2
20260509181249 69 124 2.0 3.0 0.00 0.00 0.00 60 1010.3
20260509180746 69 124 3.0 4.0 0.00 0.00 0.00 57 1010.2
20260509180242 68 124 1.0 1.0 0.00 0.00 0.00 59 1010.7
20260509175738 68 124 0.0 1.0 0.00 0.00 0.00 58 1010.6
20260509175235 68 40 0.0 1.0 0.00 0.00 0.00 61 1010.8
20260509174731 67 40 0.0 0.0 0.00 0.00 0.00 60 1011.1
20260509174226 66 40 1.0 1.0 0.00 0.00 0.00 62 1010.9
20260509173722 67 37 2.0 2.0 0.00 0.00 0.00 59 1010.9
20260509173218 67 5 0.0 0.0 0.00 0.00 0.00 65 1011.2
20260509172715 66 264 0.0 1.0 0.00 0.00 0.00 63 1011.4
20260509172211 64 320 0.0 2.0 0.00 0.00 0.00 64 1011.8
20260509171707 65 280 0.0 1.0 0.00 0.00 0.00 60 1011.7
20260509171203 63 303 2.0 3.0 0.00 0.00 0.00 64 1011.7
20260509170700 63 311 0.0 3.0 0.00 0.00 0.00 64 1011.6
20260509170156 63 314 1.0 2.0 0.00 0.00 0.00 66 1011.8
20260509165654 63 310 2.0 4.0 0.00 0.00 0.00 64 1011.6
20260509165150 62 318 2.0 3.0 0.00 0.00 0.00 66 1011.8
20260509164646 62 306 0.0 3.0 0.00 0.00 0.00 64 1011.5
20260509164142 62 314 0.0 0.0 0.00 0.00 0.00 66 1011.5
20260509163640 62 312 2.0 3.0 0.00 0.00 0.00 64 1011.5
20260509163135 63 309 0.0 2.0 0.00 0.00 0.00 64 1011.4
20260509162633 63 319 2.0 3.0 0.00 0.00 0.00 64 1011.4
20260509162128 62 309 2.0 4.0 0.00 0.00 0.00 65 1011.2
20260509161625 62 287 4.0 6.0 0.00 0.00 0.00 64 1011.3
20260509161120 62 325 4.0 6.0 0.00 0.00 0.00 65 1011.6
20260509160616 62 301 3.0 3.0 0.00 0.00 0.00 63 1011.7
20260509160111 63 313 1.0 3.0 0.00 0.00 0.00 64 1011.7
20260509155608 64 240 1.0 2.0 0.00 0.00 0.00 62 1011.7
20260509155104 64 251 0.0 0.0 0.00 0.00 0.00 65 1011.6
20260509154600 63 153 0.0 1.0 0.00 0.00 0.00 66 1011.9
20260509154058 64 153 3.0 4.0 0.00 0.00 0.00 64 1011.9
20260509153555 64 154 1.0 2.0 0.00 0.00 0.00 63 1011.9
20260509153052 65 154 0.0 1.0 0.00 0.00 0.00 63 1011.8
20260509152548 63 154 2.0 3.0 0.00 0.00 0.00 62 1011.6
20260509152045 64 153 0.0 1.0 0.00 0.00 0.00 60 1011.8
20260509151541 65 154 3.0 3.0 0.00 0.00 0.00 61 1011.8
20260509151039 64 153 0.0 0.0 0.00 0.00 0.00 63 1011.9
20260509150536 62 153 0.0 1.0 0.00 0.00 0.00 62 1011.8
20260509150034 62 153 0.0 2.0 0.00 0.00 0.00 65 1011.9
20260509145529 62 153 2.0 2.0 0.00 0.00 0.00 63 1011.9
20260509145025 62 153 0.0 1.0 0.00 0.00 0.00 67 1012.1
20260509144522 62 153 0.0 0.0 0.00 0.00 0.00 62 1012.0
20260509144019 61 153 2.0 2.0 0.00 0.00 0.00 64 1012.0
20260509143516 62 153 0.0 0.0 0.00 0.00 0.00 65 1012.1
20260509143014 60 153 0.0 1.0 0.00 0.00 0.00 68 1012.1
20260509142509 59 153 0.0 2.0 0.00 0.00 0.00 70 1012.3
20260509142005 59 226 0.0 0.0 0.00 0.00 0.00 69 1012.2
20260509141502 59 228 0.0 0.0 0.00 0.00 0.00 68 1012.1
20260509140959 59 228 0.0 0.0 0.00 0.00 0.00 70 1012.2
20260509140455 59 228 0.0 1.0 0.00 0.00 0.00 69 1012.0
20260509135953 58 299 1.0 1.0 0.00 0.00 0.00 69 1011.5
20260509135450 58 313 2.0 3.0 0.00 0.00 0.00 69 1011.3
20260509134947 58 325 1.0 2.0 0.00 0.00 0.00 68 1011.6
20260509134445 58 9 0.0 0.0 0.00 0.00 0.00 69 1011.7
20260509133942 58 9 0.0 0.0 0.00 0.00 0.00 71 1011.6
20260509133439 58 3 0.0 0.0 0.00 0.00 0.00 73 1011.8
20260509132937 58 345 0.0 0.0 0.00 0.00 0.00 72 1011.8
20260509132435 58 345 0.0 0.0 0.00 0.00 0.00 70 1011.8
20260509131931 58 333 0.0 0.0 0.00 0.00 0.00 72 1011.8
20260509131429 58 333 0.0 1.0 0.00 0.00 0.00 73 1011.8
20260509130925 58 323 0.0 0.0 0.00 0.00 0.00 72 1012.0
20260509130420 58 323 0.0 0.0 0.00 0.00 0.00 71 1011.8
20260509125918 58 323 0.0 0.0 0.00 0.00 0.00 71 1012.1
20260509125415 57 322 0.0 0.0 0.00 0.00 0.00 72 1011.9
20260509124910 57 322 0.0 0.0 0.00 0.00 0.00 76 1011.8
20260509124408 56 322 1.0 1.0 0.00 0.00 0.00 75 1011.6
20260509123905 56 321 1.0 3.0 0.00 0.00 0.00 75 1011.7
20260509123402 56 323 2.0 2.0 0.00 0.00 0.00 75 1011.7
20260509122858 56 316 0.0 0.0 0.00 0.00 0.00 74 1011.7
20260509122355 56 316 0.0 0.0 0.00 0.00 0.00 76 1011.9
20260509121852 56 316 0.0 0.0 0.00 0.00 0.00 75 1011.9
20260509121349 55 322 0.0 0.0 0.00 0.00 0.00 75 1011.7
20260509120847 56 316 1.0 1.0 0.00 0.00 0.00 73 1012.1
20260509120344 56 323 2.0 3.0 0.00 0.00 0.00 73 1012.1
20260509115842 56 321 1.0 2.0 0.00 0.00 0.00 72 1011.9
20260509115339 56 317 2.0 3.0 0.00 0.00 0.00 76 1012.1
20260509114837 56 60 0.0 0.0 0.00 0.00 0.00 75 1012.0
20260509114336 56 59 1.0 2.0 0.00 0.00 0.00 78 1012.0
20260509113834 55 60 0.0 0.0 0.00 0.00 0.00 73 1011.8
20260509113331 55 60 0.0 0.0 0.00 0.00 0.00 72 1011.6
20260509112828 55 60 0.0 0.0 0.00 0.00 0.00 76 1011.6
20260509112325 55 60 0.0 0.0 0.00 0.00 0.00 81 1011.6
20260509111822 55 60 0.0 0.0 0.00 0.00 0.00 77 1011.5
20260509111319 55 60 0.0 0.0 0.00 0.00 0.00 69 1011.6
20260509110817 54 60 0.0 0.0 0.00 0.00 0.00 68 1011.6
20260509110312 54 59 0.0 0.0 0.00 0.00 0.00 74 1011.8
20260509105811 53 59 0.0 0.0 0.00 0.00 0.00 74 1011.8
20260509105309 52 60 0.0 0.0 0.00 0.00 0.00 76 1011.8
20260509104805 52 60 0.0 0.0 0.00 0.00 0.00 83 1011.7
20260509104302 53 60 0.0 0.0 0.00 0.00 0.00 81 1011.5
20260509103800 53 60 0.0 0.0 0.00 0.00 0.00 78 1011.4
20260509103257 53 60 0.0 0.0 0.00 0.00 0.00 78 1011.4
20260509102755 53 60 0.0 0.0 0.00 0.00 0.00 76 1011.1
20260509102252 54 60 0.0 0.0 0.00 0.00 0.00 74 1011.1
20260509101748 54 60 0.0 0.0 0.00 0.00 0.00 76 1011.0
20260509101244 54 60 0.0 0.0 0.00 0.00 0.00 74 1011.2
20260509100742 54 60 0.0 0.0 0.00 0.00 0.00 75 1011.0
20260509100240 54 60 0.0 0.0 0.00 0.00 0.00 69 1011.2
20260509095735 54 60 0.0 0.0 0.00 0.00 0.00 70 1010.9
20260509095233 54 60 0.0 0.0 0.00 0.00 0.00 72 1010.8
20260509094730 55 60 0.0 0.0 0.00 0.00 0.00 70 1010.9
20260509094227 55 60 0.0 0.0 0.00 0.00 0.00 69 1011.0
20260509093725 55 60 0.0 0.0 0.00 0.00 0.00 67 1011.0
20260509093222 54 60 0.0 0.0 0.00 0.00 0.00 67 1010.8
20260509092720 54 60 0.0 0.0 0.00 0.00 0.00 68 1010.9
20260509092218 54 60 0.0 0.0 0.00 0.00 0.00 69 1010.8
20260509091716 53 60 0.0 0.0 0.00 0.00 0.00 71 1010.8
20260509091211 54 60 0.0 0.0 0.00 0.00 0.00 74 1010.9
20260509090709 55 60 0.0 0.0 0.00 0.00 0.00 73 1010.8
20260509090206 56 60 0.0 0.0 0.00 0.00 0.00 65 1010.9
20260509085704 55 60 0.0 0.0 0.00 0.00 0.00 61 1010.9
20260509085200 56 60 0.0 0.0 0.00 0.00 0.00 62 1010.9
20260509084657 56 60 0.0 0.0 0.00 0.00 0.00 62 1011.0
20260509084154 56 60 0.0 0.0 0.00 0.00 0.00 65 1011.0
20260509083652 56 60 1.0 2.0 0.00 0.00 0.00 63 1011.0
20260509083148 55 60 0.0 1.0 0.00 0.00 0.00 66 1011.1
20260509082646 57 60 0.0 0.0 0.00 0.00 0.00 62 1011.0
20260509082142 57 60 0.0 0.0 0.00 0.00 0.00 57 1011.0
20260509081639 57 60 0.0 0.0 0.00 0.00 0.00 58 1011.1
20260509081136 57 60 0.0 0.0 0.00 0.00 0.00 58 1011.1
20260509080635 57 60 0.0 0.0 0.00 0.00 0.00 57 1011.0
20260509080132 57 60 0.0 0.0 0.00 0.00 0.00 58 1011.1
20260509075630 57 60 0.0 0.0 0.00 0.00 0.00 58 1011.1
20260509075128 57 60 0.0 0.0 0.00 0.00 0.00 60 1011.1
20260509074624 57 60 0.0 0.0 0.00 0.00 0.00 59 1011.2
20260509074120 57 60 0.0 0.0 0.00 0.00 0.00 59 1011.2
20260509073617 57 60 0.0 0.0 0.00 0.00 0.00 58 1011.2
20260509073113 57 60 0.0 0.0 0.00 0.00 0.00 59 1011.2
20260509072610 56 60 0.0 0.0 0.00 0.00 0.00 61 1011.1
20260509072107 56 60 0.0 0.0 0.00 0.00 0.00 61 1011.3
20260509071604 57 60 0.0 0.0 0.00 0.00 0.00 61 1011.2
20260509071101 56 60 0.0 1.0 0.00 0.00 0.00 61 1011.3
20260509070558 56 60 0.0 0.0 0.00 0.00 0.00 60 1011.3
20260509070054 56 60 0.0 0.0 0.00 0.00 0.00 60 1011.4
20260509065550 56 60 0.0 0.0 0.00 0.00 0.00 61 1011.2
20260509065046 56 60 0.0 0.0 0.00 0.00 0.00 60 1011.4
20260509064544 57 60 0.0 0.0 0.00 0.00 0.00 60 1011.4
20260509064042 57 60 0.0 0.0 0.00 0.00 0.00 58 1011.3
20260509063537 57 60 0.0 0.0 0.00 0.00 0.00 58 1011.4
20260509063035 57 60 0.0 1.0 0.00 0.00 0.00 58 1011.6
20260509062532 57 60 0.0 0.0 0.00 0.00 0.00 58 1011.5
20260509062030 57 60 0.0 0.0 0.00 0.00 0.00 58 1011.7
20260509061526 57 60 0.0 0.0 0.00 0.00 0.00 58 1011.6
20260509061024 57 60 0.0 0.0 0.00 0.00 0.00 60 1011.7
20260509060521 57 60 0.0 0.0 0.00 0.00 0.00 62 1011.8
20260509060016 57 60 1.0 1.0 0.00 0.00 0.00 57 1011.7
20260509055512 57 60 0.0 0.0 0.00 0.00 0.00 61 1011.8
20260509055008 56 60 0.0 1.0 0.00 0.00 0.00 60 1011.5
20260509054505 56 60 0.0 0.0 0.00 0.00 0.00 62 1011.8
20260509054003 56 60 0.0 0.0 0.00 0.00 0.00 64 1011.8
20260509053501 56 60 0.0 0.0 0.00 0.00 0.00 65 1011.6
20260509052958 56 60 0.0 0.0 0.00 0.00 0.00 64 1011.7
20260509052456 56 15 0.0 0.0 0.00 0.00 0.00 64 1011.7
20260509051953 55 14 0.0 0.0 0.00 0.00 0.00 65 1011.6
20260509051451 54 14 0.0 0.0 0.00 0.00 0.00 67 1011.8
20260509050948 54 14 0.0 0.0 0.00 0.00 0.00 68 1011.7
20260509050444 54 14 0.0 0.0 0.00 0.00 0.00 68 1011.7
20260509045941 53 14 0.0 0.0 0.00 0.00 0.00 68 1011.7
20260509045438 52 14 0.0 0.0 0.00 0.00 0.00 73 1011.5
20260509044935 53 14 0.0 0.0 0.00 0.00 0.00 74 1011.7
20260509044433 54 14 0.0 0.0 0.00 0.00 0.00 65 1011.8
20260509043930 54 14 0.0 0.0 0.00 0.00 0.00 65 1012.0
20260509043426 54 14 0.0 0.0 0.00 0.00 0.00 65 1012.0
20260509042921 54 14 0.0 0.0 0.00 0.00 0.00 65 1011.9
20260509042419 55 14 0.0 0.0 0.00 0.00 0.00 65 1011.9
20260509041914 55 14 0.0 0.0 0.00 0.00 0.00 63 1012.1
20260509041412 55 14 0.0 0.0 0.00 0.00 0.00 64 1012.0
20260509040910 54 14 0.0 0.0 0.00 0.00 0.00 64 1011.9
20260509040408 54 14 0.0 0.0 0.00 0.00 0.00 68 1011.9
20260509035904 55 14 0.0 0.0 0.00 0.00 0.00 64 1012.0
20260509035401 56 14 0.0 0.0 0.00 0.00 0.00 62 1012.0
20260509034857 56 14 0.0 0.0 0.00 0.00 0.00 62 1012.2
20260509034355 56 14 0.0 0.0 0.00 0.00 0.00 63 1012.0
20260509033852 56 14 0.0 0.0 0.00 0.00 0.00 63 1012.1
20260509033350 56 14 0.0 0.0 0.00 0.00 0.00 62 1012.2
20260509032846 56 14 0.0 0.0 0.00 0.00 0.00 62 1012.2
20260509032343 56 14 0.0 0.0 0.00 0.00 0.00 62 1012.2
20260509031842 56 14 0.0 0.0 0.00 0.00 0.00 62 1012.1
20260509031338 56 14 0.0 0.0 0.00 0.00 0.00 63 1012.0
20260509030836 55 14 0.0 0.0 0.00 0.00 0.00 66 1012.0
20260509030334 53 14 0.0 0.0 0.00 0.00 0.00 75 1012.1
20260509025830 54 14 0.0 0.0 0.00 0.00 0.00 74 1012.2
20260509025325 53 14 0.0 0.0 0.00 0.00 0.00 70 1012.1
20260509024821 54 14 0.0 0.0 0.00 0.00 0.00 72 1012.3
20260509024318 54 14 0.0 0.0 0.00 0.00 0.00 72 1012.4
20260509023815 55 14 0.0 0.0 0.00 0.00 0.00 72 1012.4
20260509023312 55 14 0.0 0.0 0.00 0.00 0.00 67 1012.4
20260509022808 55 14 0.0 0.0 0.00 0.00 0.00 63 1012.6
20260509022307 55 14 0.0 0.0 0.00 0.00 0.00 68 1012.5
20260509021803 55 14 0.0 0.0 0.00 0.00 0.00 64 1012.3
20260509021300 55 14 0.0 0.0 0.00 0.00 0.00 64 1012.5
20260509020757 55 14 0.0 0.0 0.00 0.00 0.00 63 1012.5
20260509020255 55 14 0.0 0.0 0.00 0.00 0.00 69 1012.4
20260509015753 55 14 0.0 0.0 0.00 0.00 0.00 65 1012.4
20260509015251 55 14 0.0 0.0 0.00 0.00 0.00 72 1012.2
20260509014747 55 14 0.0 0.0 0.00 0.00 0.00 71 1012.0
20260509014244 56 14 0.0 0.0 0.00 0.00 0.00 69 1012.2
20260509013740 56 14 0.0 0.0 0.00 0.00 0.00 66 1012.5
20260509013236 56 14 0.0 0.0 0.00 0.00 0.00 66 1012.4
20260509012733 57 14 0.0 0.0 0.00 0.00 0.00 67 1012.2
20260509012230 58 14 0.0 0.0 0.00 0.00 0.00 61 1012.3
20260509011727 58 14 0.0 0.0 0.00 0.00 0.00 57 1012.4
20260509011225 58 14 0.0 0.0 0.00 0.00 0.00 58 1012.4
20260509010722 59 14 0.0 0.0 0.00 0.00 0.00 63 1012.2
20260509010218 60 14 0.0 0.0 0.00 0.00 0.00 61 1012.1
20260509005716 61 14 0.0 0.0 0.00 0.00 0.00 55 1012.2
20260509005213 61 14 0.0 0.0 0.00 0.00 0.00 50 1012.1
20260509004707 61 14 0.0 0.0 0.00 0.00 0.00 49 1012.1
20260509004205 61 14 0.0 0.0 0.00 0.00 0.00 50 1012.2
20260509003703 61 14 0.0 0.0 0.00 0.00 0.00 50 1012.2
20260509003201 61 14 0.0 0.0 0.00 0.00 0.00 51 1012.2
20260509002658 62 14 0.0 0.0 0.00 0.00 0.00 52 1012.3
20260509002155 62 14 0.0 0.0 0.00 0.00 0.00 54 1011.9
20260509001653 62 14 0.0 0.0 0.00 0.00 0.00 56 1012.1
20260509001148 63 14 0.0 0.0 0.00 0.00 0.00 51 1012.0
20260509000647 64 14 0.0 0.0 0.00 0.00 0.00 49 1012.1
20260509000143 64 14 0.0 0.0 0.00 0.00 0.00 47 1012.0
20260508235641 64 14 0.0 0.0 0.00 0.00 0.00 45 1011.9
20260508235137 64 14 0.0 0.0 0.00 0.00 0.00 45 1011.9
20260508234634 64 14 0.0 0.0 0.00 0.00 0.00 46 1011.6
20260508234131 65 14 0.0 0.0 0.00 0.00 0.00 46 1011.9
20260508233630 65 14 0.0 0.0 0.00 0.00 0.00 43 1011.9
20260508233127 65 341 0.0 0.0 0.00 0.00 0.00 45 1011.7
20260508232624 66 314 0.0 0.0 0.00 0.00 0.00 43 1011.6
20260508232121 66 314 0.0 0.0 0.00 0.00 0.00 41 1011.7
20260508231619 67 312 0.0 0.0 0.00 0.00 0.00 42 1011.7
20260508231115 67 311 0.0 0.0 0.00 0.00 0.00 42 1011.6
20260508230612 68 311 0.0 1.0 0.00 0.00 0.00 38 1011.6
20260508230109 67 311 0.0 0.0 0.00 0.00 0.00 37 1011.4
20260508225607 67 319 1.0 2.0 0.00 0.00 0.00 38 1011.4
20260508225103 67 319 2.0 3.0 0.00 0.00 0.00 36 1011.7
20260508224601 67 323 2.0 3.0 0.00 0.00 0.00 39 1011.5
20260508224057 67 325 2.0 3.0 0.00 0.00 0.00 37 1011.5
20260508223555 67 320 2.0 3.0 0.00 0.00 0.00 37 1011.6
20260508223052 67 314 3.0 4.0 0.00 0.00 0.00 37 1011.7
20260508222550 67 328 4.0 7.0 0.00 0.00 0.00 39 1011.6
20260508222047 68 303 5.0 6.0 0.00 0.00 0.00 35 1011.6
20260508221543 68 322 5.0 7.0 0.00 0.00 0.00 34 1011.4
20260508221038 70 313 5.0 6.0 0.00 0.00 0.00 35 1011.5
20260508220536 69 321 4.0 6.0 0.00 0.00 0.00 36 1011.6
20260508220032 68 327 6.0 7.0 0.00 0.00 0.00 36 1011.5
20260508215529 68 311 5.0 8.0 0.00 0.00 0.00 35 1011.5
20260508215026 68 320 6.0 8.0 0.00 0.00 0.00 34 1011.6
20260508214523 68 312 6.0 7.0 0.00 0.00 0.00 34 1011.7
20260508214019 67 285 4.0 8.0 0.00 0.00 0.00 34 1011.6
20260508213517 67 300 5.0 7.0 0.00 0.00 0.00 36 1011.8
20260508213012 67 317 6.0 8.0 0.00 0.00 0.00 38 1011.8
20260508212509 67 310 7.0 8.0 0.00 0.00 0.00 37 1011.8
20260508212006 67 307 6.0 10.0 0.00 0.00 0.00 35 1011.9
20260508211501 67 305 7.0 9.0 0.00 0.00 0.00 34 1011.9
20260508210958 68 309 9.0 10.0 0.00 0.00 0.00 34 1011.8
20260508210454 68 336 8.0 9.0 0.00 0.00 0.00 33 1011.9
20260508205950 69 310 10.0 13.0 0.00 0.00 0.00 33 1011.7
20260508205448 68 316 9.0 14.0 0.00 0.00 0.00 33 1011.9
20260508204944 68 326 13.0 15.0 0.00 0.00 0.00 32 1011.8
20260508204442 69 320 10.0 15.0 0.00 0.00 0.00 33 1011.9
20260508203937 68 308 11.0 11.0 0.00 0.00 0.00 33 1011.9
20260508203433 69 302 9.0 9.0 0.00 0.00 0.00 31 1011.6
20260508202929 69 303 12.0 15.0 0.00 0.00 0.00 32 1012.0
20260508202427 70 328 17.0 18.0 0.00 0.00 0.00 31 1011.8
20260508201924 70 316 16.0 18.0 0.00 0.00 0.00 29 1011.9
20260508201420 68 308 4.0 7.0 0.00 0.00 0.00 32 1011.9
20260508200917 68 321 5.0 10.0 0.00 0.00 0.00 31 1012.2
20260508200414 69 315 8.0 14.0 0.00 0.00 0.00 32 1012.1
20260508195909 69 310 4.0 4.0 0.00 0.00 0.00 33 1012.0
20260508195407 70 318 11.0 13.0 0.00 0.00 0.00 31 1011.9
20260508194902 71 301 13.0 14.0 0.00 0.00 0.00 29 1012.1
20260508194400 71 307 6.0 8.0 0.00 0.00 0.00 33 1012.2
20260508193857 70 319 8.0 9.0 0.00 0.00 0.00 32 1012.1
20260508193353 70 312 7.0 9.0 0.00 0.00 0.00 30 1012.2
20260508192850 70 319 5.0 11.0 0.00 0.00 0.00 29 1012.5
20260508192347 72 326 14.0 18.0 0.00 0.00 0.00 30 1012.2
20260508191844 71 286 9.0 14.0 0.00 0.00 0.00 28 1012.4
20260508191341 70 268 7.0 9.0 0.00 0.00 0.00 29 1012.7
20260508190838 69 306 13.0 18.0 0.00 0.00 0.00 30 1012.8
20260508190335 70 279 11.0 15.0 0.00 0.00 0.00 32 1012.7
20260508185831 69 294 9.0 21.0 0.00 0.00 0.00 31 1013.0